Regional Weather Roundup
Issued by NWS Newport/Morehead, NC

Home | Current Version | Previous Version | Text Only | Print | Product List | Glossary On
Versions: 1 2 3 4 5 6 7 8 9 10 11 12 13 14 15 16 17 18 19 20 21 22 23 24 25 26 27 28 29 30 31 32 33 34 35 36 37 38 39 40 41 42 43 44 45 46 47 48 49 50
000
ASUS42 KMHX 251525
RWRMHX
WEATHER ROUNDUP FOR EASTERN NORTH CAROLINA
NATIONAL WEATHER SERVICE NEWPORT/MOREHEAD CITY NC
1100 AM EDT MON JUL 25 2016

NOTE: "FAIR" INDICATES FEW OR NO CLOUDS BELOW 12,000 FEET
WITH NO SIGNIFICANT WEATHER AND/OR OBSTRUCTIONS TO VISIBILITY

NCZ015>017-031-032-045>047-102-103-251600-
NORTH COAST

CITY           SKY/WX    TMP DP  RH WIND       PRES   REMARKS
EDENTON        SUNNY     89  76  66 SW6       30.06R
ELIZABETH CITY SUNNY     88  78  72 SW8       30.04R HX 101
KITTY HAWK     SUNNY     92  77  60 SW8       30.04R HX 106
MANTEO           N/A     88  79  74 W6        30.05R HX 102

$$

NCZ045>047-081-094-103-104-251600-
CENTRAL COAST

CITY           SKY/WX    TMP DP  RH WIND       PRES   REMARKS
FRISCO         SUNNY     85  78  80 SW8       30.08R

$$

NCZ095-097-098-100-101-251600-
SOUTHERN COAST

CITY           SKY/WX    TMP DP  RH WIND       PRES   REMARKS
BEAUFORT       SUNNY     86  78  77 SW12      30.07S
CEDAR ISLAND   NOT AVBL
JACKSONVILLE   SUNNY     89  74  60 SW7       30.06S
PINEY ISLAND   NOT AVBL
WILMINGTON     SUNNY     88  75  65 SW7       30.07F


$$

NCZ011>013-027>030-043-044-078>080-089-090>093-098-251600-
COASTAL PLAIN

CITY           SKY/WX    TMP DP  RH WIND       PRES   REMARKS
AHOSKIE        SUNNY     87  79  76 CALM      30.04R HX 101
CLINTON        SUNNY     89  77  68 SW8       30.07R HX 101
ELIZABETHTOWN  SUNNY     88  73  61 SW8       30.08S
GOLDSBORO      SUNNY     89  80  73 VRB5      30.04F HX 105
GREENVILLE     SUNNY     90  79  70 SW9       30.06S HX 105
HAVELOCK       SUNNY     89  75  63 VRB7      30.08R
KENANSVILLE    NOT AVBL
KINSTON        SUNNY     90  77  66 SW7       30.06F HX 102
NEW BERN       SUNNY     89  76  65 W7        30.07S HX 100
RICHLANDS      SUNNY     90  78  68 SW8       30.07S HX 104
ROCKY MOUNT    SUNNY     89  79  72 S8        30.04F HX 104
WASHINGTON     SUNNY     89  78  70 SW7       30.05S HX 102
WHITEVILLE     SUNNY     87  74  64 SW6       30.08S

$$

AMZ130-135-150-152-154-156-158-170-250-252-270-ANZ085-086-088-633-658-670-251600-
MARINE OBSERVATIONS

STATION/POSITION TIME  TEMP    WIND        PRES    WAVE   SWELL
                       AIR SEA DIR/SP/G            HT/PER HT/PER
                 (UTC) (F)     (DEG/KT/KT) (MB)    (FT/S) (FT/S)
CHESAPEAKE LIGHT NOT AVBL
64 E VA BEACH    1450   81 81  230/ 12/ 14 1016.8    3/ 4   2/ 8
DUCK             1500   84 60  230/  8/  9 1016.8
2 E DUCK         1511      72                N/A     1/ 8
OREGON INLET     1500   84 83  210/ 12/ 14 1017.6
13E OREGON INLT  1500      82                N/A     2/ 5   2/ 8
HATTERAS CG      1500   85 82  210/  8/ 11 1018.3
DIAMOND BUOY     1450   84 85  250/ 12/ 12 1018.5    3/ 5   2/ 8
CAPE LOOKOUT     1500   85     240/ 11/ 12 1018.4
BEAUFORT LAB     1500   86 83  230/  5/ 10 1017.9
30 SE NEW RVR IN 1508   85 85  240/ 10/ 14 1018.8
30 SE NEW RVR IN 1425      85                N/A     3/ 4
27 SE WRIGHTSVLE 1508   84 84  240/ 10/ 12 1019.1
5 SE WRIGHTSVLE  1508   84 84  220/ 10/ 14 1019.4
225 S CAPE HAT   1450   83 85  180/  4/  6 1020.4    2/ 8   2/ 8
41 SE CHARLESTON 1450   85 86  230/  6/  8 1018.9    2/ 8   2/ 8

$$



USA.gov is the U.S. government's official web portal to all federal, state and local government web resources and services.